Location: ????????
(55.6189°N, 38.3031°E)
Time: 05:59:01
(UTC+00:00)

Daily predictions for brighter satellites

Satellite Brightness Start Highest point End
(mag) Time Altitude Azimuth Time Altitude Azimuth Time Altitude Azimuth
SL-16 R/B 4.2 00:13:28 24° NE 00:13:28 24° NE 00:17:19 10° E
Cosmos 2360 Rocket 4.4 00:14:17 19° NNE 00:14:17 19° NNE 00:17:56 10° ENE
USA 234 4.2 00:08:48 10° ENE 00:13:00 43° ENE 00:13:00 43° ENE
Cosmos 1980 Rocket 4.1 00:24:35 24° ESE 00:24:35 24° ESE 00:26:54 10° ESE
Cosmos 2322 Rocket 4.1 00:23:40 25° NNE 00:23:40 25° NNE 00:28:03 10° E
ADEOS II 4.5 00:18:31 10° NNE 00:19:36 17° NNE 00:19:36 17° NNE
CZ-4C R/B 3.3 00:42:17 44° ENE 00:42:17 44° ENE 00:46:43 10° NE
NOSS 3-4 (A) 4.3 00:44:59 50° NNE 00:44:59 50° NNE 00:51:52 10° E
NOSS 3-4 (C) 4.3 00:45:05 49° NNE 00:45:05 49° NNE 00:51:58 10° E
Cosmos 2333 Rocket 4.3 00:49:05 19° N 00:49:38 19° N 00:53:38 10° NE
ATLAS 5 CENTAUR R/B 4.0 00:50:56 70° SSW 00:50:56 70° SSW 01:15:04 10° SE
SL-4 R/B 4.4 01:00:11 25° ESE 01:00:11 25° ESE 01:02:19 10° E
Cosmos 1821 Rocket 4.3 01:03:19 62° NE 01:03:19 62° NE 01:08:38 10° NNE
COSMOS 2455 3.5 01:05:09 49° NNE 01:05:29 49° NE 01:11:20 10° ESE
Cosmos 2219 Rocket 4.2 01:05:40 18° N 01:06:48 19° NNE 01:10:45 10° ENE
CZ-2D R/B 4.5 01:14:33 10° N 01:15:10 13° N 01:15:10 13° N
COSMOS 2406 3.4 01:19:49 70° ENE 01:19:49 70° ENE 01:25:03 10° NE
ATLAS 2AS CENTAUR R/B 3.1 01:23:08 47° NW 01:25:28 68° NNE 01:32:50 10° ESE
SL-16 R/B 4.1 01:26:20 18° N 01:26:24 18° N 01:30:11 10° NE
Lacrosse 5 3.6 01:26:39 24° SSE 01:27:34 26° SE 01:31:43 10° E
CZ-2C R/B 3.7 01:23:48 10° NNE 01:28:27 38° E 01:32:55 10° SSE
COSMO-SKYMED 1 4.2 01:26:38 10° SE 01:30:30 32° ENE 01:33:04 18° N
Cosmos 2082 Rocket 3.4 01:28:07 21° SSE 01:31:25 40° ESE 01:36:43 10° NE
Cosmos 2285 Rocket 4.1 01:34:04 60° NNW 01:34:04 60° NNW 01:39:53 10° NNE
SJ 16-02 4.1 01:31:06 10° SE 01:33:59 17° E 01:36:53 10° NE
ASTEX 1 4.0 01:31:23 10° SSE 01:36:12 55° ENE 01:41:06 10° N
NOSS 2-2 (E) 4.3 01:37:22 79° SW 01:37:25 79° SW 01:44:56 10° SE
H-2A R/B 3.3 01:37:33 10° NNE 01:42:00 54° E 01:42:47 48° SE
IDEFIX/ARIANE 42P 2.6 01:39:54 10° NNE 01:44:24 66° N 01:44:24 66° N
COSMOS 2441 4.5 01:43:15 10° NNE 01:48:08 72° ESE 01:48:56 59° SSE
Cosmos 1833 Rocket 2.8 01:48:54 45° S 01:50:34 70° ESE 01:56:11 10° NE
SL-16 R/B 2.5 01:55:21 33° NNW 01:57:55 65° NE 02:03:34 10° SE
USA 234 3.2 01:51:54 10° E 01:58:28 80° N 02:00:20 50° WNW
Cosmos 2237 Rocket 4.2 01:56:02 15° NNW 01:58:30 19° NNE 02:02:31 10° ENE
Cosmos 2360 Rocket 3.3 01:56:04 20° NNW 01:59:29 40° NE 02:04:49 10° ESE
ADEOS II 3.9 01:58:52 10° N 02:00:32 17° NNW 02:00:32 17° NNW
Cosmos 2084 Rocket 4.0 02:04:21 50° S 02:05:01 56° SE 02:09:24 10° ENE
Cosmos 1980 Rocket 2.5 02:06:25 47° SW 02:06:25 47° SW 02:11:06 10° S
Cosmos 1934 Rocket 3.9 02:03:04 31° SSW 02:06:14 70° WNW 02:12:39 10° N
Cosmos 2322 Rocket 2.5 02:05:31 28° NNW 02:08:33 66° NE 02:14:12 10° SE
ALOS 4.5 02:05:18 10° NE 02:09:13 26° E 02:13:07 10° SSE
Lacrosse 5 rocket 1.6 02:10:11 53° ENE 02:10:11 53° ENE 02:13:05 10° E
PAYLOAD A 4.0 02:06:34 10° NNE 02:11:53 88° WNW 02:17:18 10° SSW
Cosmos 1447 Rocket 4.4 02:06:05 10° NNW 02:12:27 76° W 02:18:47 10° S
COBE Rocket 3.8 02:12:05 10° S 02:17:15 79° WSW 02:22:20 10° NNW
NOSS 2-1 (E) 3.7 02:18:39 52° N 02:18:39 52° N 02:22:41 10° NE
SKYMED 2 3.6 02:14:08 10° SSE 02:18:29 78° ENE 02:21:44 18° NNW
Cosmos 2112 Rocket 4.2 02:20:00 48° WSW 02:20:00 48° WSW 02:24:45 10° S
Cosmos 1777 Rocket 4.1 02:22:23 50° WNW 02:22:45 51° NW 02:27:52 10° NNE
Cosmos 1151 Rocket 4.0 02:20:02 10° N 02:24:18 47° ENE 02:28:31 10° SE
Cosmos 2058 3.2 02:20:34 10° S 02:24:46 70° E 02:28:58 10° NNE
Meteor 2-20 Rocket 4.4 02:18:49 10° NNW 02:25:03 88° WSW 02:31:14 10° S
CZ-4B R/B 2.6 02:22:20 10° NNE 02:25:57 78° ESE 02:27:34 31° S
Cosmos 1680 Rocket 4.2 02:28:11 34° SW 02:28:11 34° SW 02:31:56 10° S
STARLINK-46 3.8 02:29:07 42° SE 02:29:07 42° SE 02:31:27 10° E
CZ-4C R/B 2.8 02:27:28 38° WNW 02:29:16 49° NNW 02:35:56 10° ENE
Meteor PRIRODA 4.0 02:26:45 10° NNE 02:30:26 65° ESE 02:34:04 10° S
Cosmos 1076 Rocket 3.4 02:27:12 10° SSW 02:31:33 82° W 02:35:56 10° N
ADEOS 3.8 02:28:29 10° N 02:33:28 45° WNW 02:34:19 41° W
Cosmos 1356 Rocket 4.1 02:35:37 38° SW 02:35:37 38° SW 02:38:41 10° S
Meteor 2-2 Rocket 4.4 02:31:20 22° NNW 02:34:37 45° W 02:39:55 10° SSW
Cosmos 2333 Rocket 3.6 02:31:06 13° NNW 02:35:41 34° NE 02:40:55 10° E
STARLINK-29 4.2 02:35:28 33° S 02:36:10 37° SSE 02:39:25 10° E
NOSS 3-4 (A) 3.7 02:32:26 28° NW 02:36:25 87° SW 02:43:56 10° SE
Meteor 2-20 4.4 02:30:26 10° NNW 02:36:31 61° W 02:42:33 10° S
NOSS 3-4 (C) 3.7 02:32:32 28° NW 02:36:31 87° SW 02:44:02 10° SE
SL-4 R/B 2.9 02:35:48 39° SW 02:37:03 48° SSW 02:41:42 10° ESE
STARLINK-60 3.9 02:38:18 38° S 02:38:48 41° SSE 02:42:01 10° E
Cosmos 158 Rocket 4.0 02:38:02 41° WNW 02:39:04 48° WSW 02:43:46 10° S
Cosmos 1153 Rocket 4.4 02:33:21 10° SSW 02:39:30 84° WNW 02:45:42 10° N
Cosmos 1461 3.1 02:39:26 46° NW 02:39:35 46° NNW 02:43:28 10° NE
Meteor 1-31 Rocket 2.6 02:37:10 10° N 02:41:00 68° WNW 02:43:12 24° SSW
Cosmos 839 Rocket 4.1 02:40:32 10° SW 02:47:26 82° SE 02:53:38 10° NE
Cosmos 1484 Rocket 2.9 02:43:51 10° NNE 02:47:52 78° ESE 02:51:53 10° S
BREEZE-M DEB (TANK) 3.3 02:50:04 21° SSW 02:50:28 22° S 02:52:13 10° ESE
Cosmos 990 Rocket 4.2 02:45:44 10° SSW 02:50:54 75° ESE 02:56:09 10° NNE
Cosmos 2173 Rocket 4.2 02:44:52 10° S 02:51:07 76° E 02:57:19 10° NNE
Cosmos 1605 Rocket 4.0 02:45:31 10° SSW 02:51:33 52° WNW 02:57:32 10° N
COSMOS 2455 2.9 02:48:20 26° NW 02:51:38 57° WSW 02:57:29 10° SSE
SL-27 R/B 2.3 02:49:33 15° SSW 02:52:15 78° ESE 02:55:36 10° NNE
FALCON 9 DEB 4.0 02:51:11 30° SSW 02:52:20 43° SSE 02:55:38 10° E
Cosmos 2219 Rocket 3.4 02:47:23 11° NNW 02:52:24 38° NE 02:57:40 10° ESE
Okean 3 Rocket 3.7 02:49:40 10° S 02:54:12 82° E 02:58:43 10° NNE
Cosmos 1606 3.9 02:50:47 10° N 02:54:24 42° ENE 02:58:01 10° SE
MSX 4.1 02:49:21 10° N 02:54:45 43° WNW 02:59:16 14° SW
Cosmos 1408 3.8 02:52:36 10° SSE 02:56:07 43° E 02:59:39 10° NNE
Cosmos 1766 Rocket 3.7 02:55:13 10° S 02:59:32 73° E 03:03:54 10° NNE
Cosmos 1892 2.6 02:55:51 10° S 02:59:38 86° ESE 03:03:27 10° NNE
STARLINK-67 3.5 03:03:46 31° SSW 03:03:56 32° SSW 03:06:21 10° SE
COSMOS 2406 4.0 03:01:55 26° WNW 03:04:07 34° NW 03:09:23 10° NNE
COSMO-SKYMED 1 2.9 03:02:30 10° S 03:06:37 41° W 03:10:16 13° NNW
CZ-2C R/B 2.7 03:02:04 10° N 03:06:45 41° WNW 03:11:16 10° SW
CZ-4B DEB 4.3 03:02:13 10° NNE 03:07:43 82° ESE 03:13:12 10° SSW
Lacrosse 5 2.1 03:05:53 16° SW 03:09:58 71° SSE 03:15:03 10° ENE
SJ 16-02 1.2 03:07:38 10° SSW 03:12:02 78° WNW 03:16:27 10° NNE
SL-16 R/B 4.0 03:08:26 10° NNW 03:12:42 21° NNE 03:16:58 10° ENE
deb Kosmos-1763 4.0 03:10:40 10° SW 03:14:20 65° WNW 03:18:03 10° NNE
RESURS DK-1 4.2 03:10:57 10° NNW 03:14:23 24° NE 03:17:48 10° E
In-Cosmos 22 Rocket 4.0 03:09:28 10° SSW 03:14:51 73° WNW 03:20:24 10° NNE
Cosmos 2082 Rocket 2.3 03:10:03 11° SW 03:15:26 54° NW 03:21:04 10° NNE
ATLAS CENTAUR R/B 4.2 03:11:28 10° S 03:15:26 25° ESE 03:19:19 10° ENE
ASTEX 1 4.2 03:11:17 10° SW 03:15:32 28° W 03:19:49 10° NNW
Cosmos 2237 4.2 03:10:43 12° NW 03:16:11 88° SW 03:21:55 10° SSE
ATLAS 2AS CENTAUR R/B 3.1 03:10:35 17° NW 03:16:27 54° SW 03:23:24 10° SSE
Cosmos 2151 2.9 03:12:15 10° SSW 03:16:34 75° WNW 03:20:55 10° N
H-2A R/B 3.5 03:13:25 10° N 03:17:15 28° WNW 03:19:20 20° W
Cosmos 1898 Rocket 3.4 03:13:58 10° SW 03:19:13 71° WNW 03:24:33 10° NNE
NOSS 2-1 (C) 4.4 03:19:08 22° WNW 03:20:54 33° N 03:25:12 10° NE
Cosmos 2228 Rocket 3.4 03:16:26 10° N 03:21:02 74° ENE 03:25:37 10° SSE
PSLV R/B 3.9 03:17:45 10° N 03:21:26 48° WNW 03:25:11 10° SW
CZ-2C R/B 4.5 03:17:34 10° SE 03:21:58 54° ENE 03:26:30 10° N
Cosmos 2346 Rocket 4.4 03:16:37 10° NNW 03:22:44 76° W 03:28:46 10° S
Okean O Rocket 1.7 03:18:35 10° NNE 03:22:58 82° ESE 03:27:19 10° SSW
Exosat Rocket 4.1 03:18:08 10° NNW 03:23:13 65° NE 03:29:27 10° SE
IDEFIX/ARIANE 42P 3.8 03:20:22 10° N 03:24:03 20° NW 03:25:12 19° WNW
NOSS 2-1 (D) 4.4 03:22:31 21° WNW 03:24:25 33° N 03:28:44 10° NE
Cosmos 1825 2.6 03:21:11 10° S 03:24:54 65° E 03:28:40 10° NNE
COSMOS 2428 3.3 03:22:06 10° NNW 03:27:44 55° NE 03:33:21 10° SE
Cosmos 1933 3.2 03:24:08 10° NNW 03:28:11 78° W 03:32:12 10° S
Cosmos 1937 Rocket 3.4 03:26:36 10° SW 03:31:45 74° WNW 03:36:55 10° NNE
Cosmos 1833 Rocket 3.3 03:30:39 14° W 03:34:56 35° NW 03:40:07 10° NNE
NOAA 6 4.0 03:31:43 10° NNE 03:36:54 87° WNW 03:42:02 10° SSW
Cosmos 1459 Rocket 4.0 03:31:13 10° SSW 03:37:20 59° WNW 03:43:36 10° N
Cosmos 1725 Rocket 4.1 03:32:06 10° S 03:38:23 90° ESE 03:44:45 10° NNE
Cosmos 494 Rocket 4.1 03:35:15 10° NNW 03:40:34 85° ENE 03:45:50 10° SSE
Helios 1A Rocket 2.9 03:36:43 10° NNE 03:40:50 68° WNW 03:44:54 10° SSW
USA 234 3.3 03:35:01 10° ESE 03:41:35 78° SSW 03:47:41 12° WNW
SL-16 R/B 3.0 03:37:15 12° NW 03:41:43 32° WSW 03:46:40 10° SSW
Cosmos 2016 Rocket 4.0 03:36:08 10° SSW 03:42:23 73° WNW 03:48:46 10° N
Cosmos 2360 Rocket 2.3 03:38:12 10° NW 03:43:47 59° WSW 03:49:21 10° SSE
Cosmos 2237 Rocket 3.4 03:38:53 10° NNW 03:44:13 38° NE 03:49:30 10° ESE
Cosmos 2084 Rocket 3.9 03:40:54 13° W 03:44:40 48° NNW 03:49:00 10° NE
Cosmos 1315 Rocket 3.8 03:41:58 10° N 03:45:51 49° ENE 03:49:47 10° SSE
Meteor 2-3 Rocket 4.4 03:40:44 10° S 03:46:23 62° E 03:52:08 10° NNE
ALOS 2.3 03:42:23 10° N 03:46:58 56° WNW 03:51:32 10° SW
Tsikada Rocket 4.1 03:41:25 10° NNW 03:47:44 61° W 03:53:58 10° S
Cosmos 1980 Rocket 4.0 03:48:16 11° W 03:48:19 11° W 03:49:33 10° WSW
STARLINK-43 4.5 03:45:00 10° SW 03:48:32 42° SSE 03:52:05 10° E
Lacrosse 5 rocket 1.0 03:45:49 15° WNW 03:48:43 79° SSW 03:52:17 10° ESE
CZ-2C R/B 4.4 03:46:07 10° ESE 03:50:54 31° ENE 03:55:38 10° N
Cosmos 2322 Rocket 3.0 03:47:22 10° NW 03:52:16 31° WSW 03:57:10 10° SSW
SJ-7 4.4 03:49:10 10° NNE 03:53:24 77° WNW 03:57:34 10° SSW
SMAP 3.6 03:50:15 10° NNE 03:54:55 64° ESE 03:59:32 10° S
Cosmos 1515 Rocket 4.0 03:51:46 10° NNW 03:55:50 39° W 03:59:52 10° SSW
Cosmos 1707 Rocket 4.4 03:51:56 10° N 03:56:22 56° ENE 04:00:46 10° SSE
Cosmos 1328 Rocket 4.5 03:53:19 10° NNW 03:56:59 27° W 04:00:36 10° SW
STARLINK-52 3.7 03:55:30 10° WSW 03:58:57 56° S 04:02:25 10° E
Cosmos 2100 Rocket 4.3 03:53:29 10° SW 03:59:18 42° WNW 04:05:08 10° N
CZ-4B R/B 4.3 03:58:33 10° NNW 04:00:37 15° NW 04:02:42 10° W
Cosmos 1151 Rocket 4.0 03:57:59 10° NNW 04:01:39 26° W 04:05:18 10° SW
Cosmos 2058 4.3 03:59:07 10° WSW 04:02:10 19° WNW 04:05:13 10° NNW
STARLINK-46 3.9 04:01:12 10° W 04:03:58 35° SSW 04:06:45 10° SE
SAR-Lupe-2 3.5 04:01:59 10° S 04:05:33 71° WSW 04:09:09 10° NNW
Cosmos 1743 Rocket 3.5 04:01:28 10° SSW 04:05:48 74° WNW 04:10:09 10° N
SL-08 R/B 4.5 04:00:50 10° SSW 04:06:51 59° WNW 04:12:54 10° N
ADEOS Rocket 3.6 04:00:10 10° SSE 04:07:58 79° WSW 04:15:21 10° NNW
Cosmos 1980 4.4 04:03:11 10° NNW 04:08:44 51° NE 04:14:15 10° ESE
Cosmos 2333 4.3 04:02:58 10° NW 04:08:44 70° WSW 04:14:29 10° SSE
Cosmos 1782 2.8 04:07:37 10° NNW 04:11:39 74° W 04:15:37 10° S
Cosmos 1802 Rocket 4.4 04:06:35 10° SW 04:12:41 44° WNW 04:18:48 10° N
STARLINK-29 3.7 04:09:40 10° W 04:13:06 56° S 04:16:32 10° ESE
Cosmos 2298 Rocket 4.0 04:09:00 10° SW 04:14:18 71° WNW 04:19:38 10° NNE
STARLINK-60 3.6 04:12:01 10° W 04:15:20 54° S 04:18:38 10° ESE
Cosmos 2322 3.9 04:10:14 10° NW 04:15:49 56° WSW 04:21:20 10° SSE
SL-4 R/B 3.9 04:12:13 10° W 04:16:11 25° SSW 04:20:04 10° SSE
CZ-4C R/B 3.3 04:13:06 10° WNW 04:19:03 45° N 04:26:05 10° E
Cosmos 1461 4.2 04:16:17 10° WNW 04:19:30 23° N 04:22:47 10° NE
CZ-4B R/B 3.4 04:15:11 10° N 04:20:18 47° WNW 04:25:28 10° SW
Cosmos 2333 Rocket 2.3 04:14:44 10° NW 04:20:31 77° WSW 04:26:17 10° SSE
Cosmos 372 Rocket 3.9 04:17:00 10° SW 04:22:09 69° WNW 04:27:17 10° NNE
Cosmos 2061 Rocket 4.4 04:16:59 10° SW 04:22:51 41° WNW 04:28:43 10° N
